Current Version              Previous Version:    01  02  03  04  05  06  07  08  09  10  11  12  13  14  15  16  17  18  19  20  21  22  23  24  25  26  27  28  29  30  
   31  32  33  34  35  36  37  38  39  40  41  42  43  44  45  46  47  48  49  50  51  52  53  54  55  56  57  58  59  60  

[Printable]
784
ASUS44 KFWD 221901
RWRTX
NORTH TEXAS HOURLY WEATHER ROUNDUP
NATIONAL WEATHER SERVICE FORT WORTH TX
200 PM CDT TUE JUL 22 2014

NOTE: "FAIR" INDICATES FEW OR NO CLOUDS BELOW 12,000 FEET WITH NO
SIGNIFICANT WEATHER AND/OR OBSTRUCTIONS TO VISIBILITY.

TXZ118-119-222000-
DALLAS/FORT WORTH METROPLEX

CITY           SKY/WX    TMP DP  RH WIND       PRES   REMARKS
DFW AIRPORT    PTSUNNY   97  69  40 E9        30.05S HX 103
DALLAS LOVE    MOSUNNY   95  70  44 E7        30.05S HX 101
FTW MEACHAM    MOSUNNY   94  70  45 VRB5      30.04F HX 100
DAL-EXECUTIVE  MOSUNNY   95  68  41 VRB3      30.05F HX  99
FTW-ALLIANCE   MOSUNNY   94  70  45 E3        30.05F HX 100
FTW-NAS-JRB    MOSUNNY   97  68  38 VRB5      30.08F HX 102
FTW-SPINKS     PTSUNNY   95  68  41 CALM      30.07S HX  99
ARLINGTON      MOSUNNY   95  69  42 VRB5      30.05F HX 100
GRAND PRAIRIE  SUNNY    N/A N/A N/A E7        30.06F
ADDISON        MOSUNNY   93  70  46 CALM      30.08R HX  99
MESQUITE       MOSUNNY   91  68  46 CALM      30.06S HX  95
LANCASTER      SUNNY     94  69  43 NE5       30.06S HX  99
$$

TXZ091>094-102>105-117-120-121-131>134-222000-
NORTH CENTRAL TEXAS

CITY           SKY/WX    TMP DP  RH WIND       PRES   REMARKS
SHRMAN/DENISON MOSUNNY   92  71  50 CALM      30.08F HX  99
GAINESVILLE    PTSUNNY   91  73  56 SW3       30.09F HX  98
BOWIE          SUNNY     92  73  52 SE5       30.08S HX 100
BRIDGEPORT     SUNNY     92  66  42 SE5       30.09S HX  95
DECATUR        MOSUNNY   91  70  49 CALM      30.08F HX  96
DENTON         PTSUNNY   92  72  51 VRB5      30.06F HX  99
MCKINNEY       PTSUNNY   90  72  55 CALM      30.06F HX  97
GREENVILLE       N/A     90  68  48 E5        30.08S HX  93
ROCKWALL       MOSUNNY   91  74  57 NE3       30.06S HX  99
TERRELL        MOSUNNY   91  71  51 VRB5      30.06F HX  97
WAXAHACHIE     PTSUNNY   92  65  40 E5        30.06S HX  95
CLEBURNE       PTSUNNY   93  72  49 VRB3      30.07F HX 100
GRANBURY       SUNNY     96  65  35 NE6       30.06F HX  98
$$

TXZ083>090-098>101-113>116-127>130-139>142-154-155-222000-
WESTERN NORTH TEXAS

CITY           SKY/WX    TMP DP  RH WIND       PRES   REMARKS
WICHITA FALLS  SUNNY     95  69  42 CALM      30.06F HX 100
WF-KICKAPOO    MOSUNNY   94  67  39 E6        30.08F HX  98
VERNON         MOSUNNY   97  66  36 SE9       30.08F HX 100
ABILENE        MOSUNNY   94  64  37 E7        30.10F HX  95
BRECKENRIDGE   MOSUNNY   98  64  33 E7        30.06F HX 100
MINERAL WELLS  SUNNY     94  67  41 SE8       30.05F HX  97
STEPHENVILLE   SUNNY     93  65  40 CALM      30.10F HX  95
COMANCHE       MOSUNNY   94  67  40 S5        30.09S HX  97
BROWNWOOD      MOSUNNY   91  68  46 E6        30.09F HX  95
COLEMAN        MOSUNNY   91  68  46 SE8       30.11S HX  94
BRADY          MOSUNNY   91  66  43 SE8       30.10F HX  94
$$

TXZ143>147-156>162-174-175-222000-
CENTRAL TEXAS

CITY           SKY/WX    TMP DP  RH WIND       PRES   REMARKS
WACO           MOSUNNY   95  70  44 VRB3      30.04F HX 101
WACO-TSTC      SUNNY     93  68  43 W3        30.03F HX  97
WACO-MCGREGOR  MOSUNNY   95  72  46 E5        30.05F HX 103
HILLSBORO      SUNNY     96  67  38 CALM      30.05S HX  99
CORSICANA      SUNNY     93  71  48 E8        30.06F HX 100
MEXIA          PTSUNNY   90  75  60 S5        30.04F HX 100
HEARNE         SUNNY     96  76  52 E6        30.05F HX 109
CAMERON        SUNNY     92  74  55 S5        30.05S HX 101
TEMPLE         MOSUNNY   91  70  49 S9        30.06S HX  97
KILLEEN        MOSUNNY   91  70  49 SE7       30.06F HX  97
KILLEEN-SKYLRK MOSUNNY   93  68  43 E7        30.05F HX  97
FORT HOOD      MOSUNNY   96  69  41 VRB5      30.06F HX 102
GATESVILLE     SUNNY     93  68  43 CALM      30.07F HX  97
HAMILTON       MOSUNNY   92  67  44 E5        30.09S HX  95
LAMPASAS       SUNNY     93  70  46 CALM      30.07F HX  98
$$

TXZ095>097-106>112-122>126-135>138-148>153-164>167-222000-
EAST TEXAS

CITY           SKY/WX    TMP DP  RH WIND       PRES   REMARKS
PARIS          PTSUNNY   88  70  55 CALM      30.09S HX  92
SULPHUR SPRNGS MOSUNNY   89  70  54 CALM      30.10S HX  94
CLARKSVILLE    PTSUNNY   88  69  52 SE3       30.09S HX  92
MOUNT PLEASANT SUNNY     88  68  51 E3        30.09F HX  91
GILMER         SUNNY     88  72  58 CALM      30.09S HX  94
MINEOLA          N/A    N/A N/A N/A NE3       30.07F
TYLER          MOSUNNY   90  71  53 VRB3      30.07S HX  96
LONGVIEW       SUNNY     89  69  51 E6        30.07S HX  93
MARSHALL       PTSUNNY   89  72  57 NE3       30.09F HX  95
ATHENS         PTSUNNY   88  72  58 S3        30.05F HX  94
JACKSONVILLE   PTSUNNY   87  72  59 NE3       30.09F HX  93
HENDERSON      MOSUNNY   89  68  49 N7        30.08F HX  93
NACOGDOCHES    MOSUNNY   90  72  55 NE3       30.06F HX  96
LUFKIN         PTSUNNY   90  75  61 VRB5      30.05F HX 100
$$

SUPPLEMENTAL OBSERVATIONS (CENTRAL)

CITY           SKY/WX    TMP DP  RH WIND       PRES   REMARKS
$$

SUPPLEMENTAL OBSERVATIONS (WEST)

CITY           SKY/WX    TMP DP  RH WIND       PRES   REMARKS
$$

SUPPLEMENTAL OBSERVATIONS (EAST)

CITY           SKY/WX    TMP DP  RH WIND       PRES   REMARKS
$$

SUPPLEMENTAL OBSERVATIONS ARE A COLLECTION OF AUTOMATED INSTRUMENTS
THAT ARE MAINTAINED BY A VARIETY OF FEDERAL AND STATE AGENCIES.
CERTAIN ELEMENTS...SUCH AS HUMIDITY VALUES AND SUSTAINED WIND
SPEEDS...MAY BE APPROXIMATED.